Weather History for KCLT - October, 2012

Change the Weather History Date:

Tuesday, October 9, 2012

  Actual Average Record
Temperature  
Mean Temperature 53 °F 62 °F  
Max Temperature 59 °F 74 °F 92 °F (2007)
Min Temperature 46 °F 51 °F 31 °F (2000)
Degree Days  
Heating Degree Days 12 4  
Month to date heating degree days 35 30  
Since 1 July heating degree days 41 53  
Cooling Degree Days 0 2  
Month to date cooling degree days 32 21  
Year to date cooling degree days 1787 1496  
Growing Degree Days 2 (Base 50)    
Moisture  
Dew Point 46 °F    
Average Humidity 80    
Maximum Humidity 93    
Minimum Humidity 67    
Precipitation  
Precipitation T in 0.12 in 3.80 in (1894)
Month to date precipitation 0.92 1.06  
Year to date precipitation 28.91 32.90  
Snow  
Snow 0.00 in 0.00 in 0.00 in ()
Month to date snowfall 0.0 0.0  
Since 1 July snowfall 0.0 0.0  
Since 1 September snowfall 0.0 0.0  
Snow Depth 0.00 in    
Sea Level Pressure  
Sea Level Pressure 30.15 in    
Wind  
Wind Speed 4 mph (North)    
Max Wind Speed 10 mph    
Max Gust Speed 14 mph    
Visibility 7 miles    
Events Rain    
T = Trace of Precipitation, MM = Missing Value Source: NWS Daily Summary

Daily Weather History Graph

Daily Weather History Graph

Search for Another Location

Airport or City:

Trip Planner

Search our weather history database for the weather conditions in past years. The results will help you decide how hot, cold, wet, or windy it might be!

Date:

Astronomy

Oct. 09, 2012 Rise Set
Actual Time 7:25 AM EDT 6:55 PM EDT
Civil Twilight 6:59 AM EDT 7:21 PM EDT
Nautical Twilight 6:30 AM EDT 7:50 PM EDT
Astronomical Twilight 6:01 AM EDT 8:20 PM EDT
Moon 1:13 AM EDT (10/9) 3:10 PM EDT (10/9)
Length of Visible Light 12h 21m
Length of Day
11h 30m
Last Quarter, 37% of the Moon is Illuminated
Oct 9
Last Quarter
Oct 15
New
Oct 21
First Quarter
Oct 29
Full
Nov 6
Last Quarter

Hourly Weather History & Observations

Time (EDT) Temp. Windchill Dew Point Humidity Pressure Visibility Wind Dir Wind Speed Gust Speed Precip Events Conditions
12:52 AM 46.0 °F 41.9 °F 44.1 °F 93% 30.17 in 2.0 mi North 8.1 mph - 0.00 in   Light Drizzle
1:52 AM 46.0 °F 42.5 °F 44.1 °F 93% 30.16 in 2.0 mi North 6.9 mph - 0.00 in   Light Drizzle
2:37 AM 46.4 °F 43.5 °F 44.6 °F 93% 30.16 in 2.0 mi North 5.8 mph - 0.00 in   Light Drizzle
2:52 AM 46.0 °F 43.1 °F 44.1 °F 93% 30.16 in 2.0 mi North 5.8 mph - 0.00 in   Light Drizzle
3:52 AM 46.0 °F 41.9 °F 44.1 °F 93% 30.15 in 2.0 mi North 8.1 mph - 0.00 in   Light Drizzle
4:52 AM 46.0 °F 41.0 °F 43.0 °F 89% 30.14 in 2.0 mi North 10.4 mph - 0.00 in   Light Drizzle
5:01 AM 46.4 °F 42.9 °F 42.8 °F 87% 30.14 in 2.0 mi NNE 6.9 mph - 0.00 in   Light Drizzle
5:31 AM 46.4 °F 42.9 °F 42.8 °F 87% 30.14 in 2.0 mi North 6.9 mph - 0.00 in   Overcast
5:52 AM 46.0 °F 42.5 °F 44.1 °F 93% 30.15 in 2.0 mi North 6.9 mph - 0.00 in   Overcast
6:14 AM 46.4 °F 43.5 °F 44.6 °F 93% 30.15 in 2.0 mi North 5.8 mph - N/A   Overcast
7:10 AM 46.4 °F 41.9 °F 44.6 °F 93% 30.16 in 9.0 mi North 9.2 mph - 0.00 in   Overcast
7:52 AM 46.9 °F - 44.1 °F 90% 30.18 in 7.0 mi North 6.9 mph - 0.00 in   Overcast
8:16 AM 46.4 °F 43.5 °F 44.6 °F 93% 30.19 in 7.0 mi North 5.8 mph - N/A   Overcast
8:52 AM 48.0 °F - 45.0 °F 89% 30.19 in 8.0 mi North 6.9 mph - N/A   Overcast
9:30 AM 48.2 °F - 44.6 °F 87% 30.19 in 10.0 mi North 6.9 mph - N/A   Overcast
9:52 AM 48.9 °F - 45.0 °F 86% 30.20 in 10.0 mi North 4.6 mph - N/A   Overcast
10:52 AM 51.1 °F - 46.0 °F 83% 30.19 in 10.0 mi NNE 6.9 mph - N/A   Overcast
11:00 AM 51.8 °F - 44.6 °F 76% 30.19 in 10.0 mi NE 5.8 mph - N/A   Overcast
11:52 AM 53.1 °F - 46.0 °F 77% 30.17 in 10.0 mi North 5.8 mph - N/A   Overcast
12:52 PM 54.0 °F - 46.9 °F 77% 30.17 in 10.0 mi Calm Calm - N/A   Overcast
1:52 PM 55.9 °F - 46.9 °F 72% 30.14 in 10.0 mi NE 3.5 mph - N/A   Overcast
2:52 PM 57.0 °F - 46.9 °F 69% 30.12 in 10.0 mi Calm Calm - N/A   Overcast
3:52 PM 57.9 °F - 46.9 °F 67% 30.11 in 10.0 mi Calm Calm - N/A   Overcast
4:52 PM 57.9 °F - 46.9 °F 67% 30.10 in 10.0 mi Variable 3.5 mph - N/A   Overcast
5:52 PM 57.0 °F - 48.0 °F 72% 30.11 in 10.0 mi NNW 4.6 mph - N/A   Overcast
6:52 PM 57.0 °F - 48.0 °F 72% 30.10 in 10.0 mi Calm Calm - N/A   Overcast
7:52 PM 57.0 °F - 46.9 °F 69% 30.10 in 10.0 mi Variable 4.6 mph - N/A   Overcast
8:52 PM 55.9 °F - 46.9 °F 72% 30.11 in 10.0 mi Calm Calm - N/A   Overcast
10:52 PM 55.0 °F - 50.0 °F 83% 30.11 in 10.0 mi WSW 4.6 mph - N/A   Mostly Cloudy
11:52 PM 51.1 °F - 48.0 °F 89% 30.11 in 10.0 mi West 3.5 mph - N/A   Mostly Cloudy